Time,TemperatureF,DewpointF,PressureIn,WindDirection,WindDirectionDegrees,WindSpeedMPH,WindSpeedGustMPH,Humidity,HourlyPrecipIn,Conditions,Clouds,dailyrainin,SolarRadiationWatts/m^2,SoftwareType,DateUTC
2013-07-03 00:02:00,56.0,56.0,30.16,ESE,118,0.0,0.0,99,0.00,,,0.50,5.000000,,2013-07-03 04:02:00,
2013-07-03 00:11:00,56.0,56.0,30.16,ESE,119,0.0,0.0,99,0.00,,,0.50,5.000000,,2013-07-03 04:11:00,
2013-07-03 00:22:00,56.0,56.0,30.16,ESE,119,0.0,0.0,99,0.00,,,0.50,5.000000,,2013-07-03 04:22:00,
2013-07-03 00:34:00,56.0,56.0,30.16,ESE,119,0.0,0.0,99,0.00,,,0.50,5.000000,,2013-07-03 04:34:00,
2013-07-03 00:43:00,56.0,56.0,30.16,ESE,119,0.0,0.0,99,0.00,,,0.50,5.000000,,2013-07-03 04:43:00,
2013-07-03 00:52:00,57.0,57.0,30.16,ESE,119,0.0,0.0,99,0.00,,,0.50,5.000000,,2013-07-03 04:52:00,
2013-07-03 01:02:00,57.0,57.0,30.16,ESE,119,0.0,0.0,99,0.00,,,0.50,5.000000,,2013-07-03 05:02:00,
2013-07-03 01:11:00,57.0,57.0,30.16,ESE,119,0.0,0.0,99,0.00,,,0.50,5.000000,,2013-07-03 05:11:00,
2013-07-03 01:39:00,56.0,56.0,30.16,ESE,119,0.0,0.0,99,0.00,,,0.48,5.000000,,2013-07-03 05:39:00,
2013-07-03 01:48:00,56.0,56.0,30.16,ESE,119,0.0,0.0,99,0.00,,,0.48,5.000000,,2013-07-03 05:48:00,
2013-07-03 02:01:00,55.0,55.0,30.16,ESE,119,0.0,0.0,99,0.00,,,0.48,5.000000,,2013-07-03 06:01:00,
2013-07-03 02:08:00,55.0,55.0,30.16,ESE,119,0.0,0.0,99,0.00,,,0.48,5.000000,,2013-07-03 06:08:00,
2013-07-03 02:15:00,55.0,55.0,30.16,ESE,119,0.0,0.0,99,0.00,,,0.48,5.000000,,2013-07-03 06:15:00,
2013-07-03 02:26:00,55.0,55.0,30.15,ESE,118,0.0,0.0,99,0.00,,,0.38,5.000000,,2013-07-03 06:26:00,
2013-07-03 02:39:00,55.0,55.0,30.15,ESE,119,0.0,0.0,99,0.00,,,0.38,5.000000,,2013-07-03 06:39:00,
2013-07-03 02:50:00,55.0,55.0,30.15,ESE,119,0.0,0.0,99,0.00,,,0.38,5.000000,,2013-07-03 06:50:00,
2013-07-03 02:58:00,56.0,56.0,30.14,ESE,119,0.0,0.0,99,0.00,,,0.38,5.000000,,2013-07-03 06:58:00,
2013-07-03 03:07:00,56.0,56.0,30.14,ESE,118,0.0,0.0,99,0.00,,,0.38,5.000000,,2013-07-03 07:07:00,
2013-07-03 03:16:00,56.0,56.0,30.14,ESE,118,0.0,0.0,99,0.00,,,0.38,5.000000,,2013-07-03 07:16:00,
2013-07-03 03:28:00,56.0,56.0,30.13,ESE,119,0.0,0.0,99,0.00,,,0.14,5.000000,,2013-07-03 07:28:00,
2013-07-03 03:38:00,56.0,56.0,30.14,ESE,118,0.0,0.0,99,0.00,,,0.14,5.000000,,2013-07-03 07:38:00,
2013-07-03 03:47:00,56.0,56.0,30.14,ESE,118,0.0,0.0,99,0.00,,,0.14,5.000000,,2013-07-03 07:47:00,
2013-07-03 04:02:00,56.0,56.0,30.14,ESE,119,0.0,0.0,99,0.00,,,0.14,5.000000,,2013-07-03 08:02:00,
2013-07-03 04:10:00,56.0,56.0,30.14,ESE,119,0.0,0.0,99,0.00,,,0.14,5.000000,,2013-07-03 08:10:00,
2013-07-03 04:16:00,56.0,56.0,30.14,ESE,119,0.0,0.0,99,0.00,,,0.14,5.000000,,2013-07-03 08:16:00,
2013-07-03 04:38:00,56.0,56.0,30.15,ESE,118,0.0,0.0,99,0.00,,,0.06,5.000000,,2013-07-03 08:38:00,
2013-07-03 04:45:00,56.0,56.0,30.14,ESE,118,0.0,0.0,99,0.00,,,0.06,5.000000,,2013-07-03 08:45:00,
2013-07-03 05:07:00,56.0,56.0,30.14,ESE,119,0.0,0.0,99,0.00,,,0.06,5.000000,,2013-07-03 09:07:00,
2013-07-03 05:47:00,56.0,56.0,30.16,ESE,119,0.0,0.0,99,0.01,,,0.04,5.000000,,2013-07-03 09:47:00,
2013-07-03 06:17:00,56.0,56.0,30.16,SSW,204,0.0,0.0,99,0.01,,,0.04,5.000000,,2013-07-03 10:17:00,
2013-07-03 06:28:00,56.0,56.0,30.16,SSW,203,0.0,0.0,99,0.00,,,0.03,5.000000,,2013-07-03 10:28:00,
2013-07-03 06:36:00,56.0,56.0,30.16,SSW,203,0.0,0.0,99,0.00,,,0.03,5.000000,,2013-07-03 10:36:00,
2013-07-03 06:45:00,56.0,56.0,30.17,SSW,203,0.0,0.0,99,0.00,,,0.03,5.000000,,2013-07-03 10:45:00,
2013-07-03 07:16:00,56.0,56.0,30.17,SW,221,0.0,0.0,99,0.00,,,0.03,5.000000,,2013-07-03 11:16:00,
2013-07-03 07:38:00,57.0,57.0,30.17,SW,229,0.0,1.0,99,0.00,,,0.03,5.000000,,2013-07-03 11:38:00,
2013-07-03 08:08:00,59.0,59.0,30.17,SW,229,0.0,0.0,99,0.00,,,0.03,5.000000,,2013-07-03 12:08:00,
2013-07-03 08:16:00,59.0,59.0,30.17,SW,229,0.0,0.0,99,0.00,,,0.03,5.000000,,2013-07-03 12:16:00,
2013-07-03 08:37:00,59.0,59.0,30.17,West,264,0.0,1.0,99,0.00,,,0.03,5.000000,,2013-07-03 12:37:00,
2013-07-03 08:45:00,59.0,59.0,30.17,West,264,0.0,1.0,99,0.00,,,0.03,5.000000,,2013-07-03 12:45:00,
2013-07-03 09:08:00,60.0,60.0,30.17,West,263,0.0,1.0,99,0.00,,,0.03,5.000000,,2013-07-03 13:08:00,
2013-07-03 09:17:00,61.0,61.0,30.17,West,265,0.0,2.0,99,0.00,,,0.03,5.000000,,2013-07-03 13:17:00,
2013-07-03 09:47:00,61.0,60.0,30.17,West,261,1.0,2.0,97,0.00,,,0.03,5.000000,,2013-07-03 13:47:00,
2013-07-03 10:15:00,63.0,61.0,30.18,West,261,0.0,2.0,92,0.00,,,0.03,5.000000,,2013-07-03 14:15:00,
2013-07-03 10:38:00,62.0,60.0,30.17,WSW,254,0.0,2.0,93,0.00,,,0.02,5.000000,,2013-07-03 14:38:00,
2013-07-03 10:47:00,62.0,60.0,30.18,West,273,1.0,3.0,92,0.00,,,0.02,5.000000,,2013-07-03 14:47:00,
2013-07-03 10:55:00,63.0,61.0,30.17,SW,216,0.0,4.0,92,0.00,,,0.02,5.000000,,2013-07-03 14:55:00,
2013-07-03 11:06:00,63.0,61.0,30.17,SW,216,0.0,4.0,92,0.00,,,0.02,5.000000,,2013-07-03 15:06:00,
2013-07-03 11:15:00,63.0,60.0,30.17,SW,235,1.0,3.0,91,0.00,,,0.02,5.000000,,2013-07-03 15:15:00,
2013-07-03 11:26:00,64.0,61.0,30.17,WSW,255,0.0,4.0,91,0.00,,,0.01,5.000000,,2013-07-03 15:26:00,
2013-07-03 11:47:00,64.0,61.0,30.16,West,266,0.0,3.0,91,0.00,,,0.01,5.000000,,2013-07-03 15:47:00,
2013-07-03 11:57:00,64.0,61.0,30.17,West,264,1.0,3.0,89,0.00,,,0.01,5.000000,,2013-07-03 15:57:00,
2013-07-03 12:07:00,64.0,61.0,30.17,West,264,1.0,3.0,89,0.00,,,0.01,5.000000,,2013-07-03 16:07:00,
2013-07-03 12:17:00,64.0,60.0,30.17,WSW,238,0.0,3.0,88,0.00,,,0.01,5.000000,,2013-07-03 16:17:00,
2013-07-03 12:39:00,65.0,62.0,30.16,West,266,0.0,3.0,89,0.00,,,0.01,5.000000,,2013-07-03 16:39:00,
2013-07-03 12:46:00,66.0,63.0,30.16,WSW,256,0.0,3.0,89,0.00,,,0.01,5.000000,,2013-07-03 16:46:00,
2013-07-03 13:01:00,66.0,62.0,30.16,West,262,1.0,2.0,86,0.00,,,0.01,5.000000,,2013-07-03 17:01:00,
2013-07-03 13:08:00,66.0,62.0,30.16,West,262,1.0,2.0,86,0.00,,,0.01,5.000000,,2013-07-03 17:08:00,
2013-07-03 13:17:00,65.0,61.0,30.17,West,281,1.0,3.0,87,0.00,,,0.01,5.000000,,2013-07-03 17:17:00,
2013-07-03 13:26:00,62.0,60.0,30.16,WSW,252,5.0,13.0,92,0.00,,,0.01,937.000000,,2013-07-03 17:26:00,
2013-07-03 13:40:00,62.0,60.0,30.16,WSW,252,5.0,13.0,92,0.00,,,0.01,937.000000,,2013-07-03 17:40:00,
2013-07-03 13:47:00,64.0,61.0,30.16,West,266,4.0,13.0,89,0.00,,,0.01,962.000000,,2013-07-03 17:47:00,
2013-07-03 13:56:00,64.0,61.0,30.15,WSW,257,4.0,10.0,89,0.00,,,0.01,928.000000,,2013-07-03 17:56:00,
2013-07-03 14:08:00,64.0,61.0,30.15,WSW,257,4.0,10.0,89,0.00,,,0.01,928.000000,,2013-07-03 18:08:00,
2013-07-03 14:16:00,65.0,61.0,30.15,West,263,4.0,11.0,88,0.00,,,0.01,737.000000,,2013-07-03 18:16:00,
2013-07-03 14:25:00,65.0,61.0,30.14,West,270,4.0,10.0,88,0.00,,,0.01,867.000000,,2013-07-03 18:25:00,
2013-07-03 14:46:00,65.0,62.0,30.14,West,281,4.0,10.0,89,0.00,,,0.01,870.000000,,2013-07-03 18:46:00,
2013-07-03 14:59:00,66.0,62.0,30.14,WSW,254,6.0,11.0,88,0.00,,,0.01,881.000000,,2013-07-03 18:59:00,
2013-07-03 15:16:00,66.0,62.0,30.14,WSW,241,4.0,11.0,87,0.00,,,0.01,802.000000,,2013-07-03 19:16:00,
2013-07-03 15:30:00,65.0,61.0,30.14,SSW,212,5.0,13.0,88,0.00,,,0.01,650.000000,,2013-07-03 19:30:00,
2013-07-03 15:38:00,64.0,61.0,30.14,SW,217,9.0,14.0,89,0.00,,,0.01,619.000000,,2013-07-03 19:38:00,
2013-07-03 15:47:00,64.0,61.0,30.14,SW,217,9.0,14.0,89,0.00,,,0.01,619.000000,,2013-07-03 19:47:00,
2013-07-03 16:05:00,64.0,61.0,30.13,SW,228,9.0,15.0,91,0.00,,,0.01,809.000000,,2013-07-03 20:05:00,
2013-07-03 16:15:00,65.0,62.0,30.13,WSW,241,7.0,13.0,91,0.00,,,0.01,710.000000,,2013-07-03 20:15:00,
2013-07-03 16:26:00,65.0,62.0,30.12,WSW,240,8.0,13.0,90,0.00,,,0.01,661.000000,,2013-07-03 20:26:00,
2013-07-03 16:37:00,68.0,64.0,30.11,SW,231,6.0,13.0,88,0.00,,,0.01,622.000000,,2013-07-03 20:37:00,
2013-07-03 16:46:00,68.0,64.0,30.11,SW,231,6.0,13.0,88,0.00,,,0.01,622.000000,,2013-07-03 20:46:00,
2013-07-03 17:06:00,69.0,65.0,30.11,WSW,250,5.0,9.0,86,0.00,,,0.01,538.000000,,2013-07-03 21:06:00,
2013-07-03 17:14:00,69.0,65.0,30.11,WSW,250,5.0,9.0,86,0.00,,,0.01,538.000000,,2013-07-03 21:14:00,
2013-07-03 17:36:00,69.0,64.0,30.11,WSW,246,8.0,12.0,83,0.00,,,0.01,489.000000,,2013-07-03 21:36:00,
2013-07-03 17:45:00,66.0,62.0,30.11,SW,222,11.0,18.0,88,0.00,,,0.01,457.000000,,2013-07-03 21:45:00,
2013-07-03 17:55:00,65.0,62.0,30.11,SSW,212,7.0,17.0,91,0.00,,,0.01,410.000000,,2013-07-03 21:55:00,
2013-07-03 18:06:00,64.0,61.0,30.11,WSW,241,9.0,15.0,91,0.00,,,0.01,371.000000,,2013-07-03 22:06:00,
2013-07-03 18:16:00,64.0,61.0,30.11,WSW,241,9.0,15.0,91,0.00,,,0.01,371.000000,,2013-07-03 22:16:00,
2013-07-03 18:38:00,65.0,63.0,30.09,SW,232,7.0,13.0,92,0.00,,,0.01,276.000000,,2013-07-03 22:38:00,
2013-07-03 18:46:00,65.0,63.0,30.09,SW,232,7.0,13.0,92,0.00,,,0.01,276.000000,,2013-07-03 22:46:00,
2013-07-03 18:57:00,66.0,63.0,30.09,SW,231,6.0,13.0,91,0.00,,,0.01,230.000000,,2013-07-03 22:57:00,
2013-07-03 19:07:00,64.0,62.0,30.09,WSW,243,3.0,8.0,92,0.00,,,0.01,25.000000,,2013-07-03 23:07:00,
2013-07-03 19:14:00,64.0,62.0,30.09,WSW,243,3.0,8.0,92,0.00,,,0.01,25.000000,,2013-07-03 23:14:00,
2013-07-03 19:40:00,63.0,62.0,30.09,WSW,241,3.0,10.0,95,0.00,,,0.01,19.000000,,2013-07-03 23:40:00,
2013-07-03 19:45:00,63.0,62.0,30.09,WSW,241,3.0,10.0,95,0.00,,,0.01,19.000000,,2013-07-03 23:45:00,
2013-07-03 19:56:00,62.0,61.0,30.09,SW,231,5.0,9.0,96,0.00,,,0.01,12.000000,,2013-07-03 23:56:00,
2013-07-03 20:06:00,62.0,61.0,30.09,SSW,213,8.0,14.0,97,0.00,,,0.01,12.000000,,2013-07-04 00:06:00,
2013-07-03 20:17:00,62.0,61.0,30.09,SSW,213,8.0,14.0,97,0.00,,,0.01,12.000000,,2013-07-04 00:17:00,
2013-07-03 20:38:00,62.0,-99.9,30.10,West,274,1.0,1.0,-999,0.00,,,0.01,,,2013-07-04 00:38:00,
2013-07-03 21:16:00,63.0,62.0,30.10,SW,215,5.0,12.0,98,0.00,,,0.01,0.000000,,2013-07-04 01:16:00,
2013-07-03 21:24:00,62.0,61.0,30.10,WSW,246,2.0,8.0,97,0.00,,,0.01,0.000000,,2013-07-04 01:24:00,
2013-07-03 22:24:00,60.0,59.0,30.10,SW,233,5.0,10.0,98,0.00,,,0.01,0.000000,,2013-07-04 02:24:00,
2013-07-03 22:57:00,63.0,63.0,30.10,SSW,193,5.0,5.0,99,0.00,,,0.01,,,2013-07-04 02:57:00,
2013-07-03 23:05:00,64.0,64.0,30.09,WSW,249,1.0,5.0,99,0.00,,,0.01,,,2013-07-04 03:05:00,
2013-07-03 23:15:00,64.0,64.0,30.09,WSW,249,1.0,5.0,99,0.00,,,0.01,,,2013-07-04 03:15:00,
2013-07-03 23:36:00,64.0,64.0,30.09,WSW,255,0.0,3.0,99,0.00,,,0.01,,,2013-07-04 03:36:00,
2013-07-03 23:46:00,64.0,64.0,30.09,West,271,0.0,4.0,99,0.00,,,0.01,,,2013-07-04 03:46:00,